Location: Rio Negrinho
(26.2394°S, 49.4999°W)
Time: 02:37:27
(UTC+00:00)

SEDSat Delta rocket - Pass Details

Date: 06 October 2020
Orbit: 533 x 1000 km, 31.4° (Epoch: 20 October)

Event Time Altitude Azimuth Distance (km) Brightness Sun altitude
Rises 00:04:43 0° 260° (W) 3,335 7.7 -36.0°
Reaches altitude 10° 00:07:30 10° 254° (WSW) 2,320 6.7 -36.5°
Enters shadow 00:10:01 25° 240° (WSW) 1,466 5.4 -37.0°
